Angleton, TX

12:24 PM CDT on May 25, 2017 (GMT -0500)
Brazoria County

Weather History for KLBX - January, 2013

Change the Weather History Date:

Tuesday, January 8, 2013

  Actual Average Record
Temperature  
Mean Temperature 60 °F -  
Max Temperature 66 °F 61 °F 77 °F (2009)
Min Temperature 53 °F 45 °F 23 °F (2017)
Degree Days  
Heating Degree Days 6    
Growing Degree Days 10 (Base 50)    
Moisture  
Dew Point 59 °F    
Average Humidity 95    
Maximum Humidity 100    
Minimum Humidity 88    
Precipitation  
Precipitation 0.55 in - - ()
Sea Level Pressure  
Sea Level Pressure 29.96 in    
Wind  
Wind Speed 9 mph (East)    
Max Wind Speed 18 mph    
Max Gust Speed 25 mph    
Visibility 6 miles    
Events Rain , Thunderstorm    
Averages and records for this station are not official NWS values.
T = Trace of Precipitation, MM = Missing Value Source: NWS Daily Summary

Daily Weather History Graph

Daily Weather History Graph

Search for Another Location

Airport or City:

Trip Planner

Search our weather history database for the weather conditions in past years. The results will help you decide how hot, cold, wet, or windy it might be!

Date:

Astronomy

Jan. 08, 2013 Rise Set
Actual Time 7:16 AM CST 5:40 PM CST
Civil Twilight 6:51 AM CST 6:06 PM CST
Nautical Twilight 6:21 AM CST 6:35 PM CST
Astronomical Twilight 5:52 AM CST 7:04 PM CST
Moon 3:52 AM CST (1/8) 2:43 PM CST (1/8)
Length of Visible Light 11h 15m
Length of Day
10h 23m
Waning Crescent, 13% of the Moon is Illuminated
Jan 8
Waning Crescent
Jan 11
New
Jan 18
First Quarter
Jan 26
Full
Feb 3
Last Quarter

Hourly Weather History & Observations

Time (CST) Temp. Dew Point Humidity Pressure Visibility Wind Dir Wind Speed Gust Speed Precip Events Conditions
12:39 AM 55.4 °F 51.8 °F 88% 30.06 in 10.0 mi ENE 6.9 mph - 0.00 in Rain Light Rain
12:53 AM 55.0 °F 52.0 °F 89% 30.05 in 10.0 mi NE 8.1 mph - 0.00 in   Overcast
1:53 AM 54.0 °F 51.1 °F 90% 30.03 in 5.0 mi ENE 9.2 mph - 0.01 in Rain Rain
2:03 AM 53.6 °F 51.8 °F 94% 30.02 in 7.0 mi ENE 9.2 mph - 0.00 in Rain Light Rain
2:20 AM 53.6 °F 51.8 °F 94% 30.02 in 9.0 mi NE 9.2 mph - 0.00 in   Overcast
2:53 AM 54.0 °F 52.0 °F 93% 30.00 in 8.0 mi ENE 8.1 mph - 0.00 in   Overcast
3:31 AM 53.6 °F 51.8 °F 94% 30.00 in 7.0 mi NE 10.4 mph - N/A   Overcast
3:53 AM 53.1 °F 52.0 °F 96% 30.00 in 8.0 mi ENE 10.4 mph - N/A   Overcast
4:53 AM 54.0 °F 53.1 °F 97% 29.96 in 6.0 mi ENE 10.4 mph - N/A   Overcast
5:30 AM 53.6 °F 53.6 °F 100% 29.97 in 1.8 mi ENE 9.2 mph - 0.22 in Rain , Thunderstorm Heavy Thunderstorms and Rain
6:42 AM 55.4 °F 55.4 °F 100% 30.01 in 1.8 mi ENE 8.1 mph - 0.27 in Rain , Thunderstorm Heavy Thunderstorms and Rain
6:49 AM 57.2 °F 55.4 °F 94% 29.99 in 1.2 mi ENE 13.8 mph - 0.45 in Rain , Thunderstorm Heavy Thunderstorms and Rain
6:53 AM 57.0 °F 55.9 °F 96% 29.98 in 1.8 mi East 12.7 mph - 0.50 in Rain , Thunderstorm Heavy Rain
7:00 AM 57.2 °F 55.4 °F 94% 29.95 in 3.0 mi East 18.4 mph 25.3 mph 0.03 in Rain , Thunderstorm Heavy Rain
7:10 AM 57.2 °F 57.2 °F 100% 29.96 in 6.0 mi ENE 12.7 mph 23.0 mph 0.04 in Rain Rain
8:35 AM 60.8 °F 59.0 °F 94% 30.01 in 4.0 mi East 9.2 mph 17.3 mph 0.00 in   Overcast
8:53 AM 60.1 °F 59.0 °F 96% 30.01 in 2.5 mi East 9.2 mph - 0.00 in Rain Light Rain
9:11 AM 60.8 °F 59.0 °F 94% 30.01 in 3.0 mi East 6.9 mph - 0.01 in Rain Light Rain
9:20 AM 60.8 °F 59.0 °F 94% 30.01 in 1.8 mi East 6.9 mph - 0.01 in   Overcast
9:40 AM 60.8 °F 60.8 °F 100% 30.02 in 3.0 mi East 10.4 mph - 0.02 in Rain Light Rain
9:53 AM 62.1 °F 61.0 °F 96% 30.01 in 3.0 mi ESE 12.7 mph - 0.02 in Rain Light Rain
10:53 AM 63.0 °F 62.1 °F 97% 29.99 in 3.0 mi East 11.5 mph 18.4 mph 0.00 in   Overcast
11:00 AM 62.6 °F 62.6 °F 100% 29.98 in 2.5 mi East 10.4 mph - 0.00 in Rain Light Rain
11:30 AM 64.4 °F 62.6 °F 94% 29.96 in 4.0 mi ESE 10.4 mph 17.3 mph 0.00 in   Overcast
11:53 AM 64.9 °F 64.0 °F 97% 29.95 in 4.0 mi East 12.7 mph - 0.00 in   Overcast
12:21 PM 64.4 °F 64.4 °F 100% 29.95 in 5.0 mi East 6.9 mph - N/A   Overcast
12:53 PM 64.9 °F 64.0 °F 97% 29.94 in 4.0 mi East 8.1 mph - N/A   Overcast
1:25 PM 64.4 °F 64.4 °F 100% 29.91 in 3.0 mi East 6.9 mph - 0.00 in Rain Light Rain
1:53 PM 64.0 °F 64.0 °F 100% 29.88 in 3.0 mi East 11.5 mph - 0.00 in   Overcast
2:34 PM 64.4 °F 64.4 °F 100% 29.89 in 5.0 mi East 4.6 mph - N/A   Overcast
2:53 PM 66.0 °F 64.9 °F 96% 29.89 in 6.0 mi East 5.8 mph - N/A   Overcast
3:13 PM 66.2 °F 64.4 °F 94% 29.90 in 7.0 mi ESE 5.8 mph - N/A   Mostly Cloudy
3:51 PM 64.4 °F 64.4 °F 100% 29.91 in 6.0 mi ESE 6.9 mph - N/A   Mostly Cloudy
3:53 PM 64.9 °F 64.0 °F 97% 29.91 in 6.0 mi ESE 5.8 mph - N/A   Overcast
4:53 PM 64.0 °F 63.0 °F 96% 29.91 in 4.0 mi Calm Calm - 0.00 in Rain Light Rain
5:53 PM 64.0 °F 61.0 °F 90% 29.88 in 10.0 mi SE 12.7 mph - 0.00 in Rain Light Rain
6:53 PM 63.0 °F 61.0 °F 93% 29.87 in 10.0 mi East 3.5 mph - N/A   Clear
7:53 PM 62.1 °F 60.1 °F 93% 29.88 in 10.0 mi NE 5.8 mph - N/A   Clear
8:53 PM 62.1 °F 60.1 °F 93% 29.92 in 8.0 mi NNE 5.8 mph - 0.00 in Rain Light Rain
9:53 PM 61.0 °F 59.0 °F 93% 29.93 in 9.0 mi East 8.1 mph - 0.00 in   Mostly Cloudy
10:00 PM 60.8 °F 59.0 °F 94% 29.95 in 9.0 mi SE 9.2 mph - 0.00 in Rain , Thunderstorm Light Rain
10:19 PM 60.8 °F 59.0 °F 94% 29.95 in 7.0 mi East 8.1 mph - 0.02 in Rain Light Rain
10:53 PM 61.0 °F 60.1 °F 97% 29.94 in 10.0 mi East 10.4 mph - 0.02 in   Mostly Cloudy
10:58 PM 62.6 °F 60.8 °F 94% 29.94 in 10.0 mi ESE 12.7 mph - N/A   Mostly Cloudy
11:06 PM 62.6 °F 60.8 °F 94% 29.92 in 10.0 mi East 12.7 mph 19.6 mph N/A   Mostly Cloudy
11:15 PM 62.6 °F 60.8 °F 94% 29.90 in 10.0 mi East 17.3 mph 25.3 mph N/A   Scattered Clouds
11:26 PM 62.6 °F 60.8 °F 94% 29.93 in 10.0 mi East 13.8 mph 21.9 mph N/A   Mostly Cloudy
11:53 PM 63.0 °F 62.1 °F 97% 29.94 in 10.0 mi East 12.7 mph 20.7 mph N/A   Overcast